Terug naar catalogus

COSMOS 252 DEB

ActiefLEO
NORAD 3569·DEBRIS·🇷🇺 Russia

Gelanceerd Nov 1, 1968 vanaf Baikonur Cosmodrome

Loading…

Volgende Passages (komende 24 uur)

TLE

VersSource: Space-Track

Epoch: Sep 14, 2026, 14:40 UTC

1 03569U 68097V   26257.61133746  .00002978  00000-0  60332-3 0  9999
2 03569  62.2903 115.5333 0546971 157.8838 204.6820 13.97491002831347

Volg COSMOS 252 DEB in realtime met AllMySat

Download on the App Store